GFSMA_925_thetae_078.txt.gz
Theta_e
331 330 330 329 327 329 328 331 330 329 329 328 327 326 325 323 322 321 321 321 322 321 321 320 319 320 319 318 317 317 317 317 316 316 316 316 316 316 316 315 314 314 314
331 329 329 328 329 328 328 329 329 328 327 327 326 325 324 321 321 320 320 321 320 320 320 322 322 321 320 319 317 317 316 317 316 316 316 315 315 314 314 313 313 313 312
329 329 328 328 328 328 327 328 327 327 326 326 325 324 322 321 320 320 319 320 320 319 319 321 321 320 320 318 317 316 316 316 316 316 315 314 314 313 313 312 312 311 311
329 328 327 327 328 328 327 326 327 326 325 325 324 323 322 321 319 319 320 320 320 320 319 319 319 319 318 318 317 317 316 316 315 315 314 313 312 312 311 310 309 310 310
329 328 327 327 327 327 327 326 326 326 325 324 324 323 322 322 320 319 320 320 320 319 319 319 318 317 317 317 317 317 316 316 315 314 313 312 311 311 308 307 304 304 308
328 328 328 326 325 326 324 325 326 325 325 324 323 323 323 322 321 320 319 319 319 319 319 320 318 318 317 317 316 317 318 317 316 315 315 314 312 311 307 304 303 303 303
328 328 327 326 324 325 324 324 326 325 324 324 322 322 322 322 322 321 320 319 319 319 319 319 318 317 317 316 317 317 318 319 318 316 316 316 314 313 309 306 305 304 306
326 327 326 324 324 322 322 323 325 325 324 323 323 322 323 322 321 322 321 320 319 319 318 318 318 318 318 318 317 316 317 319 319 319 318 316 315 315 313 311 309 307 307
326 326 326 324 324 323 321 323 324 324 324 323 323 322 324 324 322 322 321 320 319 319 318 318 318 318 318 318 318 317 314 314 317 319 320 319 319 317 317 316 315 313 311
326 325 325 325 324 324 322 322 324 324 323 323 323 322 321 320 324 325 322 321 320 319 319 318 318 318 318 318 318 318 317 315 313 314 317 319 320 320 319 319 318 318 317
323 322 324 324 324 323 324 323 323 323 323 322 323 323 323 323 322 322 323 322 322 320 320 320 320 320 320 320 319 319 318 317 316 316 315 315 316 318 320 320 320 319 319
323 323 324 324 323 322 322 322 321 321 322 322 322 322 322 322 322 322 322 322 322 321 320 320 320 321 321 320 320 319 319 318 318 317 317 317 317 317 317 317 318 319 319
323 323 324 323 322 320 320 320 320 320 320 321 322 322 322 322 321 321 320 319 320 320 321 321 321 321 320 317 316 316 317 317 317 318 317 317 317 317 317 317 317 317 317
324 324 324 323 321 319 319 318 319 319 319 320 321 322 322 322 322 321 321 320 319 319 318 317 317 318 316 316 315 316 317 317 317 316 315 316 316 316 316 316 316 317 316
323 323 323 322 323 321 318 316 315 316 317 318 319 319 321 320 321 321 321 320 319 322 320 318 318 318 317 317 318 317 317 317 316 316 316 317 317 317 316 316 316 316 316
322 322 321 322 322 322 321 320 318 314 314 314 316 318 318 317 320 321 320 320 320 320 321 317 317 316 318 318 318 318 318 316 316 316 316 317 317 317 317 317 317 317 317
321 321 322 321 321 321 320 319 320 319 315 316 316 316 316 317 318 318 318 318 318 318 319 318 318 317 318 318 319 319 319 319 318 317 317 318 318 317 317 318 318 318 318
321 321 321 321 320 321 321 321 320 320 318 316 316 318 318 318 317 318 317 318 318 317 317 317 317 318 318 318 319 320 320 320 320 319 319 317 316 318 319 319 318 318 319
320 320 321 320 320 320 320 321 321 322 321 320 320 318 318 318 317 317 318 318 318 318 318 317 318 319 320 319 320 320 320 321 321 320 319 318 318 317 318 318 319 318 318
322 321 320 320 320 321 321 322 323 323 322 321 322 321 322 321 321 321 321 321 320 320 320 320 321 320 320 320 320 320 321 321 322 321 320 319 319 318 317 317 316 316 316
321 322 322 321 321 318 315 319 321 321 321 321 321 321 321 321 321 322 322 322 322 321 321 321 320 320 321 321 321 321 321 321 322 321 322 322 321 320 317 316 314 315 314
314 316 317 318 314 306 306 314 317 318 318 319 319 320 320 320 320 320 320 319 319 320 321 321 321 320 320 320 320 321 321 321 322 321 321 321 319 311 301 298 295 303 308
303 302 301 300 299 298 300 304 308 312 313 314 312 313 315 317 318 319 319 319 318 318 318 316 317 318 318 318 317 318 318 318 318 317 314 314 296 294 289 287 286 292 293
294 293 292 292 292 290 293 299 303 305 303 302 300 299 301 303 304 306 311 313 314 312 310 311 306 302 299 300 302 303 304 304 302 300 299 293 287 284 284 285 285 286 287
292 290 289 289 290 287 288 294 298 301 296 290 287 288 290 291 293 298 301 303 304 297 292 293 291 289 290 291 294 295 294 295 299 296 292 292 287 284 283 282 282 282 283
290 289 289 288 287 287 284 290 291 290 288 286 284 284 283 284 287 293 294 294 288 284 285 286 286 286 286 285 286 285 285 287 290 290 283 284 284 283 282 281 281 281 281

GFSMA_925_thetae_081.txt.gz
Theta_e
334 332 332 332 330 329 326 329 329 332 331 329 328 327 325 325 324 325 324 321 324 324 323 322 322 321 320 319 318 318 318 318 318 318 317 317 317 317 316 316 315 315 315
333 332 330 331 331 330 327 328 329 330 330 328 327 325 324 324 323 322 323 323 322 322 321 321 322 321 320 319 318 318 317 317 317 317 317 316 316 315 315 314 314 314 314
333 332 332 331 329 328 327 327 329 329 329 328 326 325 324 322 321 321 322 322 321 321 320 321 322 322 321 319 317 317 317 317 317 316 316 316 315 314 313 311 313 312 312
333 331 330 330 329 327 328 328 328 328 327 326 325 324 323 321 320 321 320 320 320 320 320 321 320 319 319 319 317 317 317 317 316 316 316 315 314 313 312 311 311 310 311
331 330 329 329 327 328 328 327 327 327 326 325 324 323 322 321 320 320 320 321 320 320 320 320 320 319 318 317 318 318 317 317 316 316 316 314 313 312 310 310 309 309 310
329 330 328 328 327 327 327 326 326 326 326 325 324 323 322 322 320 319 320 321 321 320 320 320 319 318 317 317 317 318 318 317 317 316 315 314 313 312 310 309 309 308 306
329 330 329 327 326 326 326 326 326 325 325 324 323 322 322 322 322 320 320 319 320 320 320 322 320 319 318 317 316 316 318 319 318 317 317 316 315 314 311 311 308 306 305
328 328 328 327 326 325 326 326 325 325 325 323 323 323 324 323 323 321 321 320 320 320 320 320 320 319 319 319 318 317 318 319 320 319 318 317 316 315 314 312 309 307 307
329 328 327 326 325 325 324 324 325 325 324 324 323 323 324 324 322 323 322 321 320 320 320 320 320 319 319 320 319 317 315 316 318 319 320 318 318 317 317 316 315 313 312
329 328 325 325 325 324 322 322 325 325 324 325 324 323 321 320 324 325 323 322 322 321 320 320 319 319 319 320 319 319 318 314 311 314 318 320 320 320 319 319 319 318 318
325 324 326 324 324 323 323 322 324 324 324 324 324 324 323 323 323 324 325 324 323 321 320 320 319 319 319 319 319 319 318 317 316 314 313 314 317 319 320 320 320 320 319
324 324 325 324 324 323 323 322 324 324 324 324 324 324 323 323 323 322 324 324 324 323 322 321 320 320 320 320 320 320 320 319 318 317 317 316 316 315 316 316 318 318 319
323 322 323 323 323 324 324 323 323 323 324 324 324 323 323 323 322 322 323 322 322 322 323 322 321 322 321 322 322 321 320 317 316 317 317 318 317 317 317 317 317 317 317
324 323 323 323 322 323 324 324 324 324 324 324 323 323 323 322 322 323 322 321 322 321 318 322 323 323 323 323 322 322 320 319 316 316 317 317 317 317 317 317 317 317 317
325 323 324 323 322 323 323 322 323 322 322 323 322 322 323 322 321 322 321 319 322 323 322 319 320 319 320 319 320 319 318 316 315 316 316 316 316 316 315 316 316 316 316
324 325 323 323 323 322 322 321 320 321 320 320 320 321 321 321 320 321 320 318 321 321 322 319 319 318 319 319 319 319 319 319 317 317 317 317 316 315 316 316 317 317 317
324 323 323 322 321 320 321 318 317 317 316 317 318 317 317 319 319 319 317 315 320 320 321 320 319 319 319 318 318 320 320 320 320 320 319 318 318 317 315 316 317 317 317
323 322 322 322 322 321 321 320 319 317 315 315 315 315 316 316 317 317 316 318 319 318 318 318 318 318 318 318 318 318 318 318 319 320 320 320 319 319 319 317 317 317 316
321 321 321 323 323 322 321 321 320 319 319 318 318 316 316 317 317 318 318 317 317 317 317 317 317 317 317 317 318 318 318 319 319 320 320 320 320 320 320 319 318 318 318
321 320 320 321 321 321 321 321 321 321 321 321 321 320 319 318 317 318 318 318 318 319 319 319 319 320 321 321 321 322 321 321 322 321 321 321 320 320 320 319 317 318 318
318 320 321 318 315 315 314 317 319 321 323 323 323 322 322 322 322 320 320 319 320 321 322 322 322 323 323 323 323 322 322 322 322 322 322 322 322 320 316 312 310 311 313
313 313 310 307 305 303 303 311 316 316 316 317 317 319 319 319 320 320 320 320 320 317 320 321 321 321 321 322 321 321 321 322 322 320 317 319 314 309 303 299 294 296 298
301 300 299 298 296 297 301 305 308 310 308 307 307 308 308 307 309 311 314 314 312 311 308 308 308 307 305 305 303 304 305 304 305 306 305 303 298 296 292 291 291 291 292
293 292 292 292 293 293 297 301 302 301 300 296 295 294 295 296 298 300 304 302 300 299 298 297 294 290 289 292 295 296 297 297 298 298 297 299 296 291 288 286 285 284 284
291 290 289 290 288 288 293 298 297 294 290 288 287 287 287 287 291 295 297 297 291 287 287 288 288 288 288 291 293 294 292 290 295 289 288 288 286 284 283 282 282 283 283
292 291 289 288 287 286 287 289 290 289 287 285 284 283 282 283 283 288 288 287 283 283 285 285 285 284 284 285 286 285 284 285 284 287 283 284 285 285 284 282 282 282 283

GFSMA_925_thetae_084.txt.gz
Theta_e
335 333 331 329 329 331 330 331 330 328 329 331 330 330 328 326 327 325 324 323 323 324 324 323 323 321 320 319 319 319 318 317 318 317 317 317 316 316 316 315 315 315 314
335 334 334 332 332 330 330 329 327 328 329 329 329 328 325 325 325 324 321 324 324 323 322 323 322 321 320 319 318 318 318 318 317 317 317 317 316 316 315 314 313 313 314
334 332 332 333 331 331 329 327 327 327 329 329 328 326 325 324 323 324 321 322 323 321 320 320 320 320 320 321 318 317 317 317 317 317 317 316 315 315 314 312 312 312 312
333 332 331 331 331 331 329 327 327 327 328 328 327 325 324 322 321 323 322 321 321 320 320 319 319 319 319 319 318 318 318 317 317 316 317 316 315 313 311 310 311 311 311
332 332 331 331 330 329 329 328 327 327 328 327 325 324 322 321 321 322 322 321 320 319 319 321 320 318 318 318 318 317 317 317 317 316 316 315 314 312 311 310 309 309 308
332 332 331 330 330 328 327 327 328 328 327 326 324 324 322 321 320 320 322 320 319 319 320 320 320 318 318 318 317 318 317 317 317 317 317 316 314 311 310 310 307 305 304
331 331 330 329 328 328 327 328 328 327 326 325 324 323 323 321 319 320 322 321 320 320 321 320 318 318 318 318 317 317 318 318 318 317 317 316 315 312 309 307 305 304 304
330 330 329 328 327 326 327 327 326 326 326 325 323 323 322 322 321 321 320 320 321 321 321 320 320 318 318 317 316 317 318 319 319 319 318 317 316 314 312 309 307 307 306
328 329 329 328 327 326 326 326 325 325 326 325 323 322 323 323 322 321 321 320 321 320 319 322 321 319 319 319 317 315 316 317 319 319 319 318 317 315 314 313 311 311 309
329 329 327 327 327 326 326 326 325 325 325 324 323 322 321 322 321 322 322 320 321 320 320 320 320 320 320 320 320 319 316 313 313 317 319 319 319 319 319 318 318 318 317
329 329 328 326 326 326 325 325 325 325 324 324 323 323 321 323 321 322 322 323 322 322 321 321 321 320 319 319 320 320 319 318 314 311 311 315 318 320 320 320 319 319 319
325 326 326 326 324 325 325 325 323 323 324 324 324 323 324 324 324 323 323 322 322 322 321 320 320 320 319 319 319 319 319 319 318 317 315 313 313 313 315 317 318 318 319
323 322 323 325 324 324 324 324 323 324 323 323 323 324 324 323 323 323 323 323 323 323 323 321 321 320 319 320 319 319 319 320 319 319 318 317 317 316 316 315 315 315 317
325 322 323 324 323 324 324 323 320 323 322 323 323 324 323 323 323 322 322 321 320 321 322 323 322 321 321 318 319 320 322 321 321 320 319 318 318 318 318 318 317 317 317
324 323 323 323 324 324 323 323 322 323 322 321 323 323 323 323 323 322 323 322 321 321 320 320 322 322 322 322 322 322 322 322 321 319 317 317 317 318 318 317 317 316 316
325 324 323 323 322 323 324 324 323 323 323 323 323 323 322 322 322 321 321 320 319 320 320 320 320 319 320 320 320 321 320 318 318 318 317 316 317 317 316 316 316 316 315
325 325 323 322 322 323 323 323 323 323 323 322 322 322 322 321 320 321 318 315 318 316 318 319 318 318 318 316 318 319 319 319 319 319 320 319 319 319 318 317 317 317 317
324 323 323 323 322 322 322 322 322 321 321 321 320 320 320 319 316 317 319 318 318 316 315 316 318 319 318 317 318 319 319 319 318 319 319 319 318 319 319 319 318 318 317
321 321 323 322 321 321 321 320 320 320 319 318 317 317 317 317 315 315 315 316 318 317 317 318 317 316 315 316 316 316 317 317 317 317 317 317 318 318 319 317 318 318 318
320 320 322 321 320 320 320 320 320 319 319 318 317 317 317 316 316 315 315 316 317 316 317 317 316 317 317 317 317 318 319 320 320 320 320 321 318 317 315 312 314 314 314
319 319 317 316 314 315 316 318 319 319 321 320 319 320 318 316 315 316 317 318 318 318 318 318 319 319 319 320 321 321 320 319 320 318 318 319 315 311 308 307 304 303 304
308 309 307 305 304 303 305 311 314 314 315 316 311 308 310 316 315 310 309 310 312 314 313 313 316 317 315 311 309 308 306 308 313 313 308 306 306 305 300 298 295 295 294
299 298 298 298 298 299 303 305 310 310 307 304 303 304 303 304 306 307 298 300 301 301 302 303 300 293 294 294 296 298 299 298 301 299 299 301 299 296 291 289 287 287 287
293 291 291 292 295 297 299 301 303 302 299 295 294 293 294 295 298 300 297 296 292 291 292 292 291 288 288 291 293 294 294 294 294 292 293 293 290 287 286 286 285 286 287
290 289 288 288 289 292 293 293 296 294 291 287 287 286 287 288 290 296 295 290 287 284 285 286 286 286 286 287 290 290 288 290 293 285 285 286 286 285 284 284 284 284 285
289 287 285 285 285 287 289 289 290 289 286 284 284 284 284 284 284 287 289 287 283 282 283 284 284 284 283 283 284 284 284 284 283 285 282 284 286 285 286 284 283 283 283

GFSMA_925_thetae_087.txt.gz
Theta_e
335 334 333 331 328 328 328 331 329 328 331 331 328 329 329 329 330 328 326 325 325 325 326 326 324 323 321 320 320 319 318 319 319 317 317 317 317 316 316 316 316 315 315
336 334 330 327 327 330 330 329 328 329 331 330 330 329 328 328 327 325 324 324 324 323 323 323 322 322 322 321 319 319 318 318 318 318 317 316 316 316 315 315 314 312 313
336 334 331 330 328 330 331 331 329 329 329 329 330 328 326 326 325 324 324 324 324 322 320 321 321 320 321 321 318 318 318 318 318 318 317 316 315 315 314 313 311 312 313
335 334 334 333 331 330 330 330 329 328 328 328 328 327 325 325 324 322 322 324 323 321 321 320 320 320 320 320 318 318 318 317 317 317 316 316 314 314 313 311 310 310 310
334 333 333 333 332 331 330 329 327 327 327 328 327 327 323 323 323 322 321 322 321 320 319 320 319 318 319 319 318 318 318 318 317 317 317 316 313 311 309 308 308 309 308
333 333 332 331 331 330 330 329 327 327 327 328 327 325 322 321 323 322 321 320 320 319 319 319 319 319 319 318 318 319 318 318 318 317 317 316 313 310 308 307 306 305 305
333 332 331 331 330 329 329 329 327 327 326 327 324 323 321 320 320 322 321 320 319 319 318 319 320 318 318 318 318 317 318 318 318 318 318 317 316 309 306 306 307 305 305
331 331 331 330 329 328 328 328 326 327 327 326 323 322 322 321 320 321 321 320 320 319 319 319 319 319 317 317 318 317 318 319 319 319 318 317 316 312 309 306 306 305 305
330 330 330 329 328 327 327 327 327 326 326 325 323 322 322 321 321 321 321 321 320 319 319 320 319 318 317 317 316 317 316 318 319 320 319 318 316 314 312 311 309 308 308
329 330 330 328 328 327 327 326 327 326 326 324 324 322 321 321 320 321 321 320 321 321 321 321 320 320 319 318 318 317 315 315 317 319 319 319 318 317 315 314 314 314 314
328 328 328 328 328 327 327 326 326 325 325 324 323 321 321 321 321 320 320 320 319 320 320 320 321 321 320 319 319 319 319 317 314 314 317 319 320 320 319 318 318 318 318
329 329 328 328 326 327 326 326 326 325 325 324 323 322 321 322 321 321 319 319 319 319 321 320 320 321 320 320 320 320 320 320 319 318 315 313 314 317 319 318 318 319 319
326 329 327 327 327 326 326 326 325 324 324 324 323 323 322 322 322 322 322 322 320 321 321 322 320 320 320 320 319 319 319 319 319 319 318 318 317 315 314 314 315 317 319
325 324 323 324 325 324 324 325 325 324 324 324 323 323 322 323 323 322 322 321 319 321 322 322 321 320 319 319 319 319 319 318 318 318 319 319 320 320 319 318 317 317 316
325 323 322 322 324 323 323 324 324 323 323 323 323 323 322 323 323 322 321 321 319 317 319 320 322 321 321 321 321 319 320 320 320 320 321 321 320 319 318 317 317 317 318
324 323 322 323 324 324 324 324 323 323 322 323 322 322 323 323 322 322 321 321 320 319 318 318 318 319 319 321 321 320 320 320 320 321 320 318 318 318 317 317 316 316 316
324 323 322 323 323 323 323 323 322 321 323 322 322 320 322 322 322 322 321 320 316 316 316 316 316 316 316 318 318 319 320 320 321 320 319 319 318 318 319 319 318 318 318
325 324 323 322 322 322 323 323 322 322 321 321 320 323 322 322 321 319 316 315 316 318 315 315 315 315 314 316 318 318 318 316 315 317 318 317 318 319 319 319 319 318 318
324 324 323 322 322 322 322 322 323 322 322 322 322 322 322 321 321 319 315 315 315 317 317 316 315 315 315 316 314 313 313 313 316 316 317 317 317 317 316 314 313 314 315
322 322 322 322 321 320 320 320 321 321 321 321 321 321 320 318 317 317 316 315 315 314 316 317 316 316 315 314 314 315 316 317 317 318 317 316 311 310 308 307 307 307 307
318 315 315 314 315 317 317 318 319 319 319 318 316 316 314 314 316 316 315 315 315 315 316 316 316 316 316 317 316 313 315 315 314 314 309 307 306 304 302 302 304 300 301
309 309 307 307 309 310 313 315 315 317 314 312 308 305 304 305 305 310 310 311 313 314 313 313 313 310 306 301 301 302 302 305 307 306 303 301 298 297 294 292 291 292 291
299 298 299 301 300 301 306 310 312 309 305 302 301 299 299 299 299 300 300 301 301 302 302 302 297 292 291 291 294 296 297 298 298 297 297 295 291 291 288 287 287 287 288
292 292 291 293 295 294 297 300 304 301 297 294 294 295 294 294 297 297 296 295 292 292 292 293 291 287 287 289 291 291 291 291 290 290 291 290 287 286 285 285 285 285 285
288 288 289 291 291 291 291 292 294 291 288 286 287 288 290 292 291 294 293 290 286 285 284 284 284 284 284 286 288 289 288 290 288 284 284 285 286 285 284 284 284 284 284
286 286 286 287 289 288 289 289 289 287 285 284 284 284 285 287 289 289 289 286 283 284 284 283 283 283 283 283 283 284 285 284 284 282 282 285 285 285 285 285 284 283 282

GFSMA_925_thetae_093.txt.gz
Theta_e
338 337 338 337 335 334 328 329 330 331 330 330 329 329 330 330 331 331 331 330 329 331 331 331 328 326 324 325 325 324 323 322 322 320 319 319 319 318 318 317 317 317 316
336 336 336 336 333 331 327 329 327 330 329 328 329 329 329 330 330 331 330 329 329 329 329 330 330 326 324 323 323 322 321 321 320 320 318 318 318 317 317 316 316 316 316
334 334 333 335 334 332 331 328 328 329 328 327 327 328 329 329 330 330 330 330 330 328 328 328 328 326 324 322 321 320 319 319 318 319 318 317 317 317 316 316 315 315 315
334 334 333 332 332 331 331 328 329 328 329 328 328 329 328 328 329 329 330 329 327 324 325 327 327 325 324 321 320 319 318 318 318 318 318 317 316 316 315 315 314 314 314
336 335 333 332 334 330 329 328 328 326 328 328 329 328 328 328 328 329 329 327 324 323 322 324 325 323 321 320 319 319 318 318 318 318 317 317 316 316 315 314 313 312 313
336 335 334 332 331 331 327 327 329 328 328 327 328 327 327 327 327 327 328 324 323 322 322 321 321 319 319 320 319 318 319 318 318 318 317 317 317 315 315 314 313 311 311
335 335 334 332 331 329 327 328 329 329 328 328 327 325 325 324 325 326 325 323 323 322 321 321 320 319 318 319 318 318 320 319 318 317 317 317 316 316 314 314 313 312 313
335 335 334 332 333 329 328 327 328 326 327 328 327 322 321 320 322 324 324 323 323 322 320 320 320 319 318 317 317 317 318 319 318 318 317 317 316 316 316 314 314 313 312
334 334 333 330 331 328 329 329 327 326 327 327 327 324 322 323 321 321 322 323 323 322 320 319 319 319 318 317 318 318 317 318 318 318 318 317 316 316 315 315 315 313 312
334 333 332 332 330 330 328 328 326 326 326 326 325 325 321 320 322 321 319 321 321 321 320 319 319 319 318 318 318 318 317 317 316 317 318 317 317 317 316 316 315 313 311
332 332 332 331 331 329 328 327 326 326 326 325 325 323 321 320 320 320 321 318 318 319 319 319 318 319 319 319 318 317 317 317 317 316 317 318 319 319 318 318 317 316 315
331 331 330 329 329 328 328 326 326 326 325 326 324 323 321 320 320 319 318 318 319 319 319 319 318 318 318 318 318 318 317 317 316 316 316 315 317 319 319 319 320 319 318
327 328 327 328 327 328 327 327 326 325 325 326 324 322 321 320 319 319 319 318 317 318 319 319 319 319 319 319 319 319 319 318 317 318 318 317 316 315 315 316 317 316 316
325 326 328 328 328 328 327 326 326 326 325 326 323 321 320 320 320 320 319 319 318 317 319 320 320 320 320 320 320 320 320 319 319 319 319 319 318 318 318 317 316 316 316
327 328 327 327 327 327 326 326 326 326 326 325 324 322 320 320 319 320 319 317 319 319 319 319 320 320 320 320 320 320 320 319 319 319 319 319 318 318 318 318 318 318 318
326 327 327 326 325 325 324 324 324 325 325 325 324 321 321 320 320 320 320 317 320 320 319 319 320 320 320 320 320 319 320 320 319 319 319 319 319 319 319 319 319 318 318
326 326 325 323 324 323 323 322 323 323 324 324 323 322 321 321 322 321 319 320 320 320 317 319 318 318 318 317 317 317 318 318 318 318 318 317 317 318 319 319 319 319 319
325 324 323 321 321 322 323 323 323 323 323 323 323 322 322 321 321 321 320 320 320 320 319 316 318 317 317 316 316 317 317 317 317 318 318 318 318 317 314 315 316 316 316
324 323 323 322 322 322 323 323 322 322 323 323 322 321 321 321 321 321 320 319 320 318 318 317 316 316 316 316 316 315 315 316 316 314 313 313 314 314 314 313 311 310 310
323 322 322 322 321 321 321 321 322 322 322 322 322 322 322 322 320 320 320 319 317 316 315 315 316 316 316 315 315 315 314 313 311 310 309 308 307 304 302 302 302 299 299
321 320 319 318 317 317 318 320 321 321 320 321 320 320 321 321 321 321 319 318 316 316 315 315 315 315 315 314 314 313 312 309 302 300 300 299 298 297 297 294 295 294 293
313 314 313 312 310 311 312 318 319 319 318 318 316 314 316 318 319 319 319 318 317 316 316 315 315 315 308 308 307 306 306 306 301 298 296 293 293 293 292 291 291 290 289
303 304 303 304 302 301 304 311 316 315 311 308 307 307 306 304 308 309 312 313 313 314 313 313 311 303 299 299 298 298 299 299 293 293 294 289 289 290 288 288 287 287 287
294 293 295 296 295 292 295 302 305 305 302 300 300 299 301 299 300 302 302 301 298 299 300 303 301 295 295 295 296 296 295 293 289 289 291 287 286 286 286 286 286 285 284
288 288 289 290 291 290 292 294 296 295 293 292 293 293 294 294 293 296 298 292 288 285 285 288 288 288 290 291 292 292 291 291 286 283 286 286 285 284 284 283 283 282 281
286 286 286 286 286 287 289 292 292 289 288 287 288 289 290 290 290 290 291 289 285 284 284 284 284 284 284 284 286 288 289 290 285 282 283 284 284 285 285 284 281 281 280

GFSMA_925_thetae_096.txt.gz
Theta_e
340 341 340 339 338 336 335 334 333 331 331 329 329 330 328 326 328 330 331 331 331 332 333 333 331 328 328 327 327 326 325 323 322 321 320 320 320 320 319 318 318 317 317
341 343 336 336 335 334 333 331 329 329 328 328 329 330 328 326 328 330 331 330 330 329 331 332 331 329 325 325 325 325 324 322 322 321 320 319 319 318 318 317 317 317 317
338 339 335 333 334 332 332 329 329 330 331 330 330 329 326 326 328 330 330 329 329 329 329 329 330 329 325 323 324 323 321 320 320 319 319 318 317 317 317 317 316 316 316
335 336 336 332 331 329 329 328 328 330 330 330 328 328 328 328 328 328 329 330 329 329 328 328 329 327 325 323 322 321 320 319 318 318 317 317 317 317 316 316 315 315 314
334 334 334 333 329 328 327 328 326 329 328 328 328 328 325 326 328 328 329 329 329 328 326 328 328 327 326 323 321 320 319 318 318 318 317 317 316 316 316 315 314 313 313
334 334 333 332 329 328 328 329 327 328 328 328 327 327 326 326 327 328 328 328 328 327 323 324 326 326 324 322 321 319 320 319 318 319 317 316 316 316 316 314 313 314 313
334 335 334 332 328 328 328 328 327 327 327 327 327 325 324 326 327 327 328 328 328 324 322 322 323 323 320 319 319 318 320 319 317 317 317 316 316 316 316 315 314 313 312
335 336 334 332 329 328 328 327 326 328 327 327 327 324 322 321 323 325 326 327 325 323 322 322 321 320 318 318 319 318 317 320 318 317 317 316 316 316 316 315 314 314 313
337 336 334 332 330 328 327 328 328 328 328 327 327 324 321 324 321 321 324 325 325 323 322 321 321 319 319 318 318 317 317 318 318 317 317 317 316 316 316 316 315 315 313
336 336 334 334 333 329 328 329 328 327 327 326 325 325 323 321 323 321 320 322 323 323 322 321 321 320 319 318 317 317 317 317 317 318 318 317 317 316 316 316 315 314 312
334 334 334 333 332 329 327 329 328 327 326 325 326 324 321 321 321 321 322 318 321 322 322 321 320 319 319 318 317 317 318 318 317 317 318 318 317 317 317 317 316 315 314
332 333 333 332 330 330 328 329 328 327 326 325 325 325 324 322 320 320 320 321 320 319 322 321 320 319 318 318 318 318 318 317 317 317 316 317 318 318 319 319 319 319 318
330 331 330 330 330 331 329 328 327 326 326 326 325 325 323 323 322 321 321 320 319 317 319 319 319 319 318 318 318 318 318 318 317 317 316 316 316 316 317 318 318 318 317
329 328 329 328 330 327 326 327 326 326 325 326 325 324 323 322 320 321 320 319 318 317 318 319 319 319 319 318 318 318 318 319 318 318 317 317 317 317 317 316 316 316 316
327 327 325 325 327 326 326 327 327 326 325 325 324 324 323 321 320 320 320 319 319 320 319 318 319 319 319 319 319 319 320 320 319 319 318 318 319 318 318 318 317 317 317
325 324 324 324 326 327 327 326 326 325 325 325 325 324 322 320 320 320 319 319 319 319 319 319 319 319 320 320 320 319 320 320 320 319 319 319 319 318 318 318 318 318 318
325 327 327 326 326 326 325 325 324 324 324 325 325 324 321 320 320 320 319 318 317 317 319 318 318 319 319 319 319 319 319 319 319 319 319 319 319 318 318 318 319 318 319
325 326 326 326 323 322 323 322 322 322 322 323 323 324 322 320 320 319 319 319 317 317 319 318 317 318 319 319 319 319 318 317 317 317 316 317 318 318 317 315 315 315 314
325 324 324 321 320 321 322 322 323 323 323 323 323 323 321 320 320 319 319 318 318 319 320 319 317 317 316 316 315 315 315 315 315 314 316 316 314 312 311 312 311 311 313
323 322 321 319 319 321 321 321 322 322 322 322 322 322 321 320 320 319 318 319 319 318 317 318 317 316 317 316 316 315 312 310 308 307 306 306 306 305 305 306 305 304 302
320 318 317 316 317 319 320 320 320 320 321 321 321 320 321 321 321 320 319 319 320 318 316 316 315 315 315 315 315 314 312 307 301 299 300 298 298 298 297 297 295 294 293
312 312 311 311 312 312 314 318 319 319 318 318 317 315 316 319 320 319 319 318 318 316 316 315 315 315 314 313 312 310 306 300 298 296 295 292 293 292 291 291 290 289 289
303 303 302 302 301 302 307 312 315 314 310 307 308 308 311 306 312 316 317 317 317 316 316 315 314 311 306 307 307 304 304 302 293 292 294 288 289 289 288 287 287 287 286
292 292 292 293 294 293 298 305 306 303 300 298 299 299 301 301 304 306 306 306 301 302 305 306 306 299 301 300 299 301 300 296 291 291 292 287 286 286 286 286 286 284 284
287 287 288 289 289 290 293 297 300 298 294 292 292 294 294 294 294 298 300 292 287 285 286 291 290 292 292 294 295 296 294 292 286 285 288 286 285 284 283 283 282 281 281
287 287 286 287 287 287 289 292 293 291 289 288 288 288 289 290 291 292 293 289 284 282 284 287 285 286 287 288 290 290 291 290 284 282 284 284 284 284 284 282 281 281 280

GFSMA_925_thetae_099.txt.gz
Theta_e
343 339 339 339 338 337 337 336 335 334 334 334 334 333 330 327 326 325 328 330 330 334 335 335 332 331 331 330 329 328 327 325 324 322 322 321 320 319 318 319 319 318 317
342 338 338 338 339 338 337 336 334 333 332 333 332 331 330 328 327 325 327 330 330 332 333 333 334 331 329 328 328 327 326 324 323 322 321 320 319 319 319 318 318 317 317
338 337 335 336 336 337 335 334 333 333 331 331 331 329 330 329 327 325 328 329 330 330 330 331 331 330 328 327 326 325 324 323 322 321 321 319 318 318 318 317 317 317 316
336 334 334 333 333 334 333 332 331 329 329 329 329 329 328 328 325 326 328 329 330 330 329 327 328 329 326 325 325 324 323 321 320 320 319 318 318 317 317 316 316 316 316
337 334 334 332 331 332 332 330 329 329 329 329 328 330 328 325 325 325 327 329 330 330 330 328 327 328 326 325 323 322 322 320 319 318 318 317 317 316 316 316 315 315 314
336 334 334 332 331 330 330 328 328 328 328 329 328 328 328 326 325 327 327 327 328 328 328 327 328 328 326 325 323 321 321 319 318 319 318 316 316 316 316 315 315 314 312
335 334 334 331 331 330 330 328 327 326 328 328 328 326 326 326 324 323 326 327 327 328 328 328 328 328 327 326 323 321 320 321 319 321 318 317 316 315 315 315 315 313 312
333 335 334 332 331 330 329 328 328 328 328 328 326 324 325 323 325 326 326 327 327 327 327 325 326 326 326 324 323 319 319 322 320 318 318 317 316 316 315 315 315 313 313
333 334 334 331 331 330 328 328 328 327 327 327 327 325 324 327 322 323 325 326 326 327 325 323 323 323 322 321 321 319 318 319 318 317 317 317 316 315 315 315 316 315 314
332 331 332 332 331 329 328 328 328 327 328 327 327 326 324 324 326 324 321 324 325 326 325 323 322 322 321 320 320 319 317 317 318 318 318 317 316 316 316 315 315 315 315
333 327 321 329 331 330 328 328 328 327 328 327 327 324 322 322 323 324 325 320 321 323 324 323 321 322 321 320 320 319 318 316 317 318 318 317 317 316 316 316 316 316 315
325 322 323 329 331 329 328 328 328 328 327 327 327 325 325 323 324 325 326 323 322 320 322 322 322 321 321 320 319 318 316 317 317 317 318 318 318 317 317 318 318 318 318
323 321 323 331 331 329 327 327 327 327 327 326 326 326 325 325 325 325 325 323 323 318 320 322 321 321 320 319 319 318 317 317 318 317 317 316 317 317 318 318 319 319 319
327 327 330 331 331 329 329 326 326 327 327 326 326 325 325 324 324 323 325 324 322 318 318 320 321 320 320 319 318 317 318 318 318 317 317 317 316 316 316 316 317 317 317
329 329 330 330 330 329 327 325 325 326 326 326 326 325 325 324 323 323 323 322 322 321 320 318 318 319 320 319 318 318 317 318 318 318 318 317 317 317 317 317 317 316 316
327 327 328 329 328 327 328 326 325 325 326 325 325 325 324 324 323 322 321 321 321 320 320 319 319 319 319 319 319 318 318 319 319 319 319 318 318 317 317 317 317 317 317
322 325 326 326 325 325 325 326 326 326 325 325 325 325 324 324 323 321 320 320 319 318 318 318 319 319 319 319 319 319 318 318 319 319 319 319 318 318 318 318 318 318 318
325 324 322 322 324 325 326 326 326 325 325 324 324 324 324 323 322 321 320 319 319 318 318 317 317 318 319 318 319 319 319 317 318 318 319 319 319 319 318 318 318 317 317
324 322 322 323 325 325 324 324 322 322 322 322 321 323 323 322 320 320 320 319 318 318 317 318 317 317 318 318 318 317 318 317 315 313 316 316 316 316 315 314 313 312 310
323 322 323 323 322 321 321 321 321 322 322 322 322 322 322 322 321 320 319 318 318 317 317 319 318 316 318 316 317 313 309 309 307 304 305 306 305 305 304 304 303 303 302
323 322 320 319 318 319 319 319 320 321 321 321 320 321 321 321 320 320 319 318 318 317 317 318 317 316 316 315 315 313 307 303 300 298 298 296 296 295 293 294 294 294 293
314 315 314 314 313 313 315 318 319 318 317 315 316 314 317 320 320 319 319 318 317 317 318 317 317 316 316 315 315 314 306 298 297 294 294 291 292 291 290 290 289 289 289
302 301 300 302 302 304 305 312 316 315 311 307 305 306 307 308 309 315 317 317 318 317 317 317 316 315 314 315 314 311 307 303 295 292 294 288 289 288 287 287 287 286 285
289 291 292 293 295 295 298 301 307 305 302 300 299 300 300 301 302 302 311 309 305 307 309 314 315 310 309 309 309 308 304 298 292 290 292 286 286 285 285 285 285 284 283
287 287 288 289 290 290 293 294 297 297 294 292 293 295 295 295 295 300 301 298 293 291 290 296 296 298 297 298 301 302 296 293 287 286 289 286 285 283 283 283 282 282 282
286 286 286 286 287 288 290 291 291 290 288 288 287 287 289 291 292 295 294 290 285 284 288 289 290 291 293 293 293 297 295 293 287 285 286 286 284 284 285 282 281 281 280

GFSMA_925_thetae_102.txt.gz
Theta_e
343 341 340 342 341 341 341 340 340 340 339 338 337 337 336 335 334 333 331 330 330 331 331 335 335 334 333 332 332 331 329 328 326 325 325 324 323 322 321 320 320 319 319
341 341 341 340 339 340 339 341 340 339 338 337 336 335 336 334 334 333 329 329 329 330 330 336 334 333 333 332 331 330 328 327 325 323 323 322 321 320 319 319 319 318 317
342 339 340 339 340 340 340 339 338 338 337 336 336 335 334 334 333 332 329 325 326 330 330 335 333 332 334 331 329 328 327 326 324 323 322 321 320 319 318 318 318 317 317
340 339 339 338 337 337 336 334 334 334 334 335 335 335 333 333 332 332 327 325 325 329 330 334 330 330 331 330 327 327 326 324 323 322 322 321 319 319 318 317 317 316 316
339 338 337 337 335 336 334 333 333 333 332 334 334 333 332 330 330 329 326 325 326 329 331 329 328 327 327 327 326 326 325 323 322 320 320 320 318 318 317 316 316 316 316
338 337 336 334 334 334 334 333 331 331 331 332 331 330 330 332 330 327 326 326 326 327 330 328 326 325 326 326 325 324 324 322 321 319 319 318 317 317 316 316 316 315 315
337 336 335 333 333 332 333 331 330 329 330 330 330 329 329 329 328 326 324 324 325 328 331 331 329 329 328 326 324 323 324 322 322 318 319 317 317 316 316 316 316 315 314
336 335 334 333 332 332 332 331 331 328 329 329 328 327 328 325 328 327 326 325 325 326 327 330 330 329 328 328 327 324 323 322 321 320 319 317 316 316 316 316 315 315 314
335 334 333 332 331 331 331 333 330 329 329 329 329 329 328 331 325 325 325 325 325 326 326 327 327 328 328 327 327 325 322 322 320 319 320 317 317 316 315 315 315 315 314
334 332 332 332 332 330 331 331 330 330 330 329 329 329 329 327 329 326 323 326 326 325 326 326 326 325 326 325 325 324 322 319 318 319 317 318 317 317 316 316 315 316 316
333 332 331 331 331 331 331 331 331 331 330 329 329 328 328 327 328 328 327 323 326 325 325 326 324 322 323 323 322 321 321 318 319 319 317 317 318 317 316 316 315 315 315
333 332 332 332 331 330 330 330 330 331 331 329 329 328 328 328 328 327 328 326 325 323 325 325 324 322 322 322 321 321 320 318 317 319 319 319 318 316 316 316 316 317 317
333 332 331 329 328 324 326 329 330 330 330 329 328 328 327 326 326 325 327 326 325 320 321 323 323 323 321 321 321 320 320 318 316 317 318 319 318 318 317 317 317 318 318
333 334 329 326 323 321 324 329 330 331 330 329 328 327 327 326 327 326 326 325 327 323 320 320 321 322 320 320 321 320 319 317 316 317 317 317 317 318 318 318 318 319 319
335 331 328 327 325 327 329 329 330 330 328 328 328 327 326 326 325 325 325 325 325 325 324 321 322 322 321 320 319 320 320 318 317 317 318 318 317 316 316 316 317 317 317
331 330 328 328 328 329 329 329 330 328 327 327 327 327 326 327 326 325 324 324 324 323 325 322 320 320 320 320 320 320 320 319 318 318 318 318 317 317 317 317 317 317 317
330 328 327 328 328 328 327 327 327 328 327 326 326 327 326 325 325 325 325 326 326 325 321 319 319 319 319 320 321 320 321 320 319 318 318 318 318 318 318 317 317 317 317
328 328 328 326 326 327 327 326 327 326 326 326 326 325 325 325 325 325 325 325 324 323 321 319 319 319 319 319 319 320 321 318 319 319 319 319 318 318 318 317 317 317 317
327 325 325 324 325 326 327 325 326 326 326 325 325 325 325 324 324 324 323 322 321 320 319 319 319 319 320 320 318 318 316 315 314 313 317 317 317 317 318 317 317 316 316
324 325 326 325 325 324 324 325 324 324 324 324 325 324 325 324 323 323 322 321 320 319 318 317 317 318 319 320 319 312 305 305 300 304 307 308 307 307 308 309 308 308 306
323 323 322 322 322 322 322 322 322 322 322 323 322 322 321 321 322 322 321 320 320 318 318 318 318 318 319 319 315 310 304 299 296 297 298 297 299 296 296 296 296 297 297
306 312 316 315 315 314 316 319 320 319 320 319 316 314 315 317 318 322 321 320 319 318 318 318 318 318 317 318 317 311 300 298 296 294 296 291 295 292 292 292 291 292 291
293 292 299 306 304 305 309 315 314 313 311 308 306 305 306 307 308 311 319 318 318 318 318 317 318 318 316 315 314 308 304 303 297 293 296 288 290 289 288 287 288 287 286
291 291 291 292 294 294 299 304 305 304 300 298 298 298 299 299 301 302 310 311 308 312 314 318 317 316 316 315 314 311 309 301 294 291 294 287 286 285 286 286 285 284 283
290 286 287 289 289 290 293 295 298 295 293 291 292 294 294 295 296 299 300 298 295 294 294 301 308 305 304 308 309 310 299 294 289 288 289 285 284 283 284 284 284 283 282
285 285 285 284 286 287 289 291 292 290 288 287 287 288 289 290 293 295 296 289 286 285 290 291 292 294 295 295 296 299 295 294 287 287 287 285 283 283 283 282 282 281 280

GFSMA_925_thetae_105.txt.gz
Theta_e
342 341 340 340 342 340 342 341 340 339 338 338 338 338 339 337 338 335 335 334 332 331 331 332 329 332 332 333 333 332 331 330 329 328 327 325 324 323 322 322 321 320 319
344 342 340 340 339 340 342 340 341 340 340 339 338 337 338 337 337 336 335 333 331 330 331 331 331 334 333 333 332 331 330 329 328 327 325 324 323 322 321 321 319 319 318
343 341 341 341 339 339 340 340 341 340 340 339 338 337 338 337 336 335 334 333 331 328 330 330 330 328 335 333 332 331 330 328 327 326 324 323 323 321 320 319 319 318 317
341 342 340 340 340 338 341 340 340 340 339 338 337 337 336 336 335 335 333 333 331 331 329 330 331 328 334 333 332 330 329 328 326 324 323 322 321 320 319 318 318 318 317
340 341 340 339 339 338 340 339 339 339 339 338 337 336 335 334 334 334 333 332 330 330 329 329 329 328 327 332 330 328 328 327 325 324 322 322 321 320 318 318 317 317 316
340 341 340 339 338 337 338 337 336 336 336 336 335 334 334 333 334 332 331 330 328 329 327 328 328 330 329 328 328 327 327 326 324 323 322 321 320 319 318 317 317 316 316
341 341 340 338 337 336 338 336 334 335 334 334 334 332 332 332 332 332 330 330 326 326 326 328 327 327 327 328 327 326 326 328 324 322 320 320 319 318 317 316 316 316 316
341 339 339 338 337 336 337 336 334 333 333 332 332 329 330 328 330 331 330 328 326 324 324 324 325 327 327 326 327 326 325 327 326 322 319 319 318 317 317 316 316 316 316
339 339 338 338 336 335 335 334 333 332 331 331 330 330 330 332 328 328 329 328 326 324 324 326 327 328 329 328 328 325 324 326 324 322 320 318 318 317 316 316 316 316 316
338 339 338 336 335 334 334 334 333 332 332 331 331 331 331 331 332 329 326 328 326 325 325 323 324 328 328 329 328 327 324 325 323 321 319 318 318 317 315 315 315 315 316
337 337 337 336 334 332 333 334 333 332 332 331 330 329 332 331 329 331 327 326 326 326 326 323 322 325 327 327 328 327 326 323 323 321 320 319 318 317 316 316 315 315 315
336 337 335 335 333 333 332 333 326 333 333 332 331 331 331 330 330 330 331 328 326 326 326 326 325 324 326 325 325 325 324 323 321 319 319 318 318 318 317 316 316 315 315
335 334 335 333 333 333 327 320 318 331 333 333 332 331 330 331 329 329 329 329 327 324 325 325 325 325 325 325 322 322 322 322 319 319 319 318 317 318 317 316 315 315 316
335 333 333 332 332 332 327 328 332 333 333 333 331 331 330 330 329 329 328 329 328 323 321 323 325 325 325 324 322 321 320 321 319 317 318 319 319 318 317 316 316 317 317
335 332 333 332 333 332 332 332 331 331 332 332 332 330 329 328 328 328 327 326 326 327 324 323 322 324 324 323 322 321 320 320 319 318 317 318 318 319 318 318 318 318 318
335 334 333 331 329 328 329 329 329 329 331 332 332 331 330 328 328 327 327 326 326 324 326 325 324 322 323 322 322 320 320 320 319 318 316 317 317 317 317 317 318 318 318
333 332 332 331 330 328 323 324 325 327 330 331 330 329 329 328 327 327 327 326 325 325 324 324 324 324 322 322 320 318 318 315 320 318 316 317 317 317 317 317 316 316 316
332 331 330 330 330 328 328 323 323 324 328 330 329 327 327 326 327 327 326 325 325 325 325 324 323 322 321 321 320 319 319 320 319 319 318 318 318 318 318 317 317 317 317
331 330 330 329 330 329 328 326 324 319 327 328 328 327 326 326 326 326 326 325 326 326 326 323 320 321 320 320 320 320 319 317 316 317 318 318 318 318 318 318 317 317 317
328 329 329 329 327 328 329 328 328 328 327 327 326 326 326 326 325 325 324 325 325 324 323 322 320 320 320 320 319 311 306 307 304 310 311 313 315 315 316 314 314 314 313
315 319 325 325 326 326 327 326 325 325 326 326 325 325 323 323 324 324 324 324 323 322 321 320 319 319 320 317 313 309 304 300 297 301 300 299 303 304 302 303 303 301 302
298 300 306 307 313 315 320 324 324 323 323 323 320 320 319 319 320 321 322 321 322 322 320 319 318 319 319 316 312 306 300 297 295 295 295 292 295 295 295 296 296 297 295
295 293 292 294 295 303 312 319 320 318 316 313 311 309 309 309 310 313 312 313 318 320 320 319 318 318 318 317 312 304 303 302 297 294 295 288 291 290 289 289 289 291 290
289 290 289 289 290 291 297 309 314 309 304 301 300 300 300 299 302 303 304 305 307 310 315 317 318 316 317 318 314 309 305 299 294 292 294 287 287 286 287 286 286 286 286
285 285 287 288 288 288 290 293 301 298 293 291 291 292 293 293 294 297 301 298 295 295 296 303 308 311 315 314 312 310 299 296 292 291 292 286 285 284 285 284 284 284 283
284 283 283 284 284 286 287 288 290 290 288 287 287 287 287 289 291 294 296 294 289 288 292 293 294 297 301 303 304 306 303 299 288 288 289 286 284 284 283 283 283 282 282

GFSMA_925_thetae_108.txt.gz
Theta_e
345 344 345 343 344 342 343 341 342 342 341 339 339 338 338 338 338 337 336 335 334 333 330 330 333 332 333 333 333 333 332 331 330 329 329 327 326 325 324 322 321 320 319
344 343 343 341 344 340 341 340 340 341 341 339 337 338 337 337 337 335 335 335 333 332 330 331 331 332 333 333 332 333 332 330 329 329 328 326 325 324 323 322 320 319 319
345 344 343 343 339 343 339 339 340 341 340 340 339 338 337 337 337 336 335 334 333 332 329 331 330 331 330 332 331 332 331 330 329 328 327 325 324 323 322 321 320 318 318
341 343 343 341 342 339 341 341 339 341 340 339 338 339 338 337 337 335 335 333 333 332 330 329 330 329 331 331 330 332 331 330 328 327 326 325 323 322 321 320 319 318 318
340 342 343 343 339 340 340 342 341 341 341 339 338 336 336 336 335 335 334 333 332 331 330 328 329 330 330 330 329 332 331 330 328 327 325 324 323 322 320 319 318 318 317
341 339 343 343 341 339 339 342 341 340 340 339 338 336 336 335 334 333 333 333 331 330 329 328 329 329 328 325 325 332 330 330 328 326 325 323 322 321 320 318 318 317 316
341 341 342 342 341 341 339 341 339 339 338 337 336 335 334 334 333 333 332 331 331 329 329 327 327 329 327 326 323 324 331 329 328 326 323 322 321 320 320 318 317 317 316
339 340 341 342 340 339 338 339 337 336 336 334 334 330 329 329 330 332 332 330 329 327 326 325 326 328 328 326 324 326 329 329 328 326 324 322 320 319 319 317 316 316 316
336 338 341 341 340 335 331 337 336 335 334 335 332 329 328 329 327 329 331 330 328 326 325 325 325 327 327 327 326 327 327 327 328 326 325 321 319 318 318 317 316 316 316
336 337 338 340 338 335 336 333 335 334 333 333 332 331 330 330 328 328 329 330 328 327 325 324 325 325 324 327 326 325 326 325 327 326 324 320 318 317 317 316 316 315 315
336 336 338 338 338 336 331 335 335 334 332 331 331 330 330 331 331 327 325 326 329 327 326 324 325 324 326 326 327 326 325 325 326 325 324 320 318 318 316 316 316 315 315
328 335 335 338 337 336 335 334 327 332 332 332 331 331 330 331 331 329 327 324 325 327 326 325 324 324 323 325 327 328 327 325 325 325 323 320 318 318 317 316 315 315 315
327 329 332 337 338 336 333 332 330 332 332 332 332 331 331 330 331 330 329 327 325 326 327 326 325 323 322 323 325 326 327 326 324 324 322 321 319 318 317 316 315 315 315
324 328 328 333 335 335 333 333 332 332 331 331 325 331 331 330 331 330 330 328 327 323 323 324 326 325 323 323 323 326 325 326 325 323 323 319 319 318 318 317 316 315 315
322 331 334 334 334 334 333 332 328 328 322 322 323 320 330 330 330 331 329 328 326 326 324 323 324 325 325 326 324 325 325 323 323 321 321 318 319 317 317 318 316 316 315
329 332 334 333 333 333 332 330 328 328 331 333 332 331 330 331 330 330 329 328 327 325 324 323 322 323 325 325 324 325 323 322 322 322 319 319 319 318 318 318 317 316 316
329 332 333 333 332 332 332 332 331 331 331 331 331 330 330 330 329 328 328 328 327 326 324 325 324 324 323 324 324 323 322 321 320 320 319 317 318 319 319 319 318 317 317
326 330 332 332 332 331 330 330 331 330 329 328 326 329 327 330 328 328 327 327 326 325 325 323 324 324 324 323 322 323 321 320 320 319 318 317 316 317 317 317 317 317 317
316 325 328 330 330 329 329 329 328 327 325 321 321 322 328 328 328 328 327 327 326 325 325 324 323 324 323 323 322 321 320 320 319 316 316 318 317 316 316 317 317 316 316
304 311 320 328 328 329 329 326 324 324 322 322 325 326 327 327 326 326 326 325 325 325 325 325 322 322 322 322 321 318 312 314 315 314 318 319 317 316 317 317 317 317 317
297 299 301 314 316 323 322 327 327 323 322 320 325 327 326 326 326 325 326 325 324 324 324 324 323 320 320 320 314 311 305 302 300 302 306 309 312 312 311 313 314 315 315
291 293 294 296 296 300 312 325 327 327 325 322 323 322 320 320 321 321 320 322 322 322 322 322 322 321 320 320 312 307 300 298 296 297 297 296 301 301 301 302 302 304 306
287 288 290 292 291 293 298 307 324 323 322 315 311 310 311 311 314 314 315 315 315 316 318 320 321 320 319 319 311 305 304 302 297 296 296 288 293 293 292 292 294 296 298
284 284 285 287 288 289 292 292 296 307 306 301 300 300 301 302 304 307 306 306 305 305 307 311 318 318 318 318 316 310 305 300 296 293 298 287 288 288 288 287 288 290 291
284 283 283 283 284 286 290 291 289 290 289 289 290 291 293 295 296 299 300 299 296 295 295 295 305 313 316 315 311 308 297 296 292 292 293 287 286 285 285 285 285 286 286
286 285 284 283 283 283 284 286 289 286 285 285 285 285 285 287 291 293 296 294 290 288 291 294 297 301 305 305 305 306 305 301 291 290 290 288 285 286 284 284 283 283 283

GFSMA_925_thetae_111.txt.gz
Theta_e
339 344 346 346 345 343 342 342 341 340 338 337 338 338 339 338 338 337 338 336 336 334 334 332 330 330 332 331 329 332 334 332 331 330 330 329 328 326 325 324 322 321 320
343 342 344 345 345 345 343 341 341 340 340 339 339 338 339 338 337 338 337 335 334 334 333 331 330 330 333 332 328 329 334 331 331 330 329 328 327 326 324 323 321 320 319
346 344 343 344 343 343 343 341 340 340 342 341 340 339 338 338 337 337 336 334 334 333 332 331 331 330 332 332 330 331 334 331 330 330 329 328 326 325 323 322 321 319 317
344 346 344 344 343 342 343 341 340 340 341 341 340 339 338 337 337 336 336 335 333 333 331 330 330 331 330 331 330 331 333 331 330 329 328 327 325 324 323 322 320 319 317
342 342 344 344 343 342 342 341 339 339 341 340 340 339 338 337 336 336 336 334 333 333 332 331 329 330 330 329 330 332 329 330 329 329 328 326 325 323 322 321 320 319 316
340 341 341 342 342 342 341 341 340 339 340 340 339 338 336 336 336 336 335 334 333 332 331 330 330 328 330 329 329 328 326 330 329 328 327 326 324 323 322 321 320 318 317
337 340 342 340 338 340 341 340 341 341 340 340 338 337 335 336 335 334 334 333 333 331 330 330 329 328 329 330 329 329 324 332 330 328 327 326 324 322 321 321 319 317 317
323 332 339 340 341 339 340 339 338 339 338 339 335 332 331 330 334 333 333 333 332 331 330 329 328 328 327 329 328 328 327 329 331 329 327 325 324 322 320 320 318 317 316
321 322 331 338 340 340 338 338 338 335 335 336 334 330 327 327 323 329 332 330 330 329 328 327 326 325 326 327 328 326 325 324 328 329 328 325 323 321 320 319 318 317 316
315 318 323 334 336 339 337 336 335 328 322 328 332 332 328 327 323 327 329 331 330 329 328 326 325 324 325 327 326 326 325 325 329 329 328 325 322 321 320 318 318 316 315
312 315 319 326 334 335 335 336 332 323 327 331 320 329 330 328 327 322 325 326 329 328 328 326 324 324 325 326 327 326 328 329 328 328 327 325 322 320 319 318 317 316 315
309 312 316 323 331 332 332 334 333 327 330 329 328 331 330 329 329 327 322 320 326 327 326 326 326 324 325 325 325 326 326 325 325 326 326 325 323 319 318 317 317 316 315
308 311 315 319 325 331 330 331 332 332 331 331 331 330 329 329 329 329 327 322 322 325 326 325 325 324 324 324 323 325 325 326 324 325 325 324 323 319 318 317 316 315 315
308 311 313 319 324 323 326 328 330 330 330 330 330 330 330 329 328 329 329 324 323 322 324 325 325 325 324 323 322 322 323 325 324 325 325 325 323 320 318 317 316 315 315
308 313 314 317 323 319 320 328 328 329 329 329 329 330 329 329 329 330 330 328 325 325 324 322 325 325 325 323 323 322 323 325 326 326 325 325 323 321 319 318 316 315 315
304 310 318 320 324 323 318 327 329 330 329 325 320 321 328 328 329 329 329 329 328 324 323 323 322 324 325 325 323 323 323 324 325 325 325 324 324 322 319 318 317 316 315
300 306 318 326 328 329 328 328 330 329 328 327 327 325 324 324 327 328 329 328 328 326 324 322 323 323 324 325 325 325 324 324 325 325 325 324 323 322 319 318 318 317 316
297 301 310 320 329 328 326 328 329 328 327 328 327 326 325 326 328 328 328 328 327 327 326 322 323 322 323 325 324 324 325 324 324 324 323 323 321 320 319 318 317 318 317
294 296 300 309 320 327 327 329 329 330 329 329 329 328 328 327 327 327 327 326 326 326 326 324 323 324 323 323 324 323 322 322 321 322 321 322 322 318 320 319 318 318 318
290 292 296 300 303 312 322 321 328 329 328 327 325 326 323 321 321 327 326 326 326 325 325 324 323 323 323 323 322 321 317 318 318 318 319 321 319 318 318 319 318 318 318
287 289 291 293 295 296 296 305 321 326 326 324 323 323 322 321 325 326 326 325 325 324 324 324 323 322 323 322 321 316 311 311 308 312 313 315 316 316 316 316 316 316 316
285 285 287 288 289 290 296 308 316 323 321 320 321 321 318 323 325 325 325 325 325 324 324 324 323 321 321 321 318 313 305 300 299 301 305 303 306 313 314 315 315 314 315
284 284 284 285 286 288 292 301 295 300 310 313 315 312 310 310 313 315 319 320 320 320 321 321 321 321 320 320 318 312 310 307 302 301 301 291 295 296 299 298 307 305 307
285 284 284 284 285 286 289 294 292 289 288 291 294 299 300 300 304 308 310 308 308 308 309 310 310 314 318 320 320 317 309 302 298 295 298 289 290 289 291 291 294 295 293
284 284 284 284 284 284 285 288 292 290 286 285 285 288 291 294 294 299 303 301 298 297 297 300 303 305 312 317 316 311 300 297 292 293 293 289 287 286 287 287 287 291 291
284 283 283 282 283 285 284 283 285 285 284 284 284 284 285 287 291 293 295 294 290 288 292 293 296 299 303 308 306 307 305 301 291 291 292 289 286 286 284 284 285 285 285

GFSMA_925_thetae_114.txt.gz
Theta_e
338 340 340 340 340 340 340 339 339 340 340 339 338 338 338 337 338 337 336 336 336 336 335 333 332 330 330 331 331 331 331 331 331 332 331 330 330 330 328 325 324 323 321
337 338 340 344 344 342 341 340 340 340 340 339 338 337 338 337 338 337 337 337 336 335 335 334 332 330 329 330 329 330 331 326 331 332 331 331 330 329 326 325 324 321 320
340 340 339 343 345 344 344 343 342 341 341 340 339 337 338 338 338 337 337 337 336 335 334 333 332 331 330 330 331 331 327 329 332 332 331 330 330 327 325 324 322 320 319
343 342 343 341 341 345 344 344 343 342 341 341 340 340 339 339 339 338 336 336 335 334 333 332 331 330 330 330 332 331 327 328 328 332 330 330 328 326 325 323 321 320 318
336 341 341 340 340 341 343 343 343 342 340 340 340 340 340 339 338 337 336 336 335 334 333 332 330 329 329 331 329 331 330 326 327 331 330 329 328 326 325 323 321 320 318
324 335 340 339 338 339 340 341 341 341 340 339 339 339 340 338 338 337 336 336 335 334 333 332 331 330 329 331 329 329 331 328 326 330 328 328 327 326 324 322 321 320 318
319 321 322 337 340 339 339 338 338 339 339 339 338 337 337 338 337 336 335 336 334 334 333 332 331 330 329 329 330 329 330 330 330 330 329 328 327 325 324 322 321 320 319
315 317 319 322 331 339 339 338 337 336 337 337 337 335 333 332 335 336 335 335 334 333 332 329 330 329 329 328 330 330 328 329 330 330 330 328 327 325 324 322 321 320 318
313 313 314 315 320 330 338 339 337 336 334 334 335 329 329 332 327 332 334 333 332 332 330 330 330 329 328 327 328 330 329 327 326 326 330 328 327 325 323 322 320 319 318
311 311 311 313 315 318 326 336 337 336 335 328 326 325 322 326 325 326 328 331 332 331 330 329 328 328 327 326 325 326 329 329 328 328 330 328 327 325 323 321 319 319 317
305 309 310 311 313 316 318 332 336 335 334 326 322 322 323 326 327 322 323 327 328 329 330 328 328 327 325 325 324 327 327 327 328 328 326 329 327 325 323 321 319 319 317
304 306 308 309 312 315 318 327 334 333 331 327 324 325 327 328 326 323 320 323 326 326 328 328 328 327 324 325 324 325 327 327 326 326 324 328 327 325 322 320 319 318 317
302 304 306 308 311 313 317 323 331 331 329 326 325 324 325 325 326 327 324 320 321 325 325 327 327 326 325 326 325 325 325 326 327 324 326 327 327 324 322 320 319 318 317
301 302 304 306 308 312 314 319 328 330 329 327 327 327 324 325 328 328 327 322 322 323 324 324 325 325 324 326 324 324 325 325 325 325 325 327 326 324 321 319 318 317 316
298 299 301 303 307 313 315 318 326 328 329 327 326 327 328 328 327 327 327 327 325 325 325 323 324 324 325 325 324 324 322 325 325 325 321 322 325 324 322 319 318 316 316
295 297 299 301 305 312 317 318 321 326 327 325 325 327 327 327 327 327 327 327 326 323 322 323 323 324 324 324 324 323 322 322 324 325 323 321 324 325 324 320 318 317 316
293 294 296 299 304 309 321 321 320 324 327 326 325 325 327 327 327 327 327 327 326 324 322 321 323 323 323 322 325 324 323 322 322 324 324 325 325 325 325 322 319 317 316
290 291 293 295 299 305 318 326 324 323 326 326 326 323 323 326 326 327 327 327 326 324 325 319 321 322 322 323 323 323 323 323 322 323 325 325 325 325 325 324 320 318 317
287 289 290 292 293 296 302 314 325 326 324 326 326 325 323 321 322 324 325 326 326 325 325 325 321 321 321 322 324 324 323 323 323 323 323 325 325 325 325 324 322 320 318
286 286 287 289 290 292 294 301 315 322 324 326 326 326 325 322 322 323 324 321 320 323 325 324 322 323 322 322 322 321 320 322 322 323 323 323 323 324 324 323 322 318 318
285 285 285 286 287 290 290 295 306 315 318 318 327 326 325 325 321 324 323 322 324 324 324 324 323 323 323 322 322 320 318 317 317 319 318 317 318 321 323 323 321 319 319
285 285 285 285 286 287 289 291 296 309 310 304 318 321 318 322 321 321 323 324 324 324 324 323 323 322 323 323 321 317 314 305 304 311 313 311 312 314 317 319 319 319 319
283 283 283 285 286 286 287 289 291 293 293 292 292 297 304 306 312 318 324 324 324 324 323 323 322 322 321 322 321 317 313 311 310 311 307 297 299 303 306 311 316 316 317
283 283 283 283 285 286 285 285 288 290 292 290 288 288 291 295 298 300 305 314 313 312 317 319 320 318 319 320 319 320 316 308 303 302 302 290 292 291 294 296 301 311 315
282 282 282 282 283 285 285 284 284 285 286 287 287 286 287 289 292 293 297 297 300 301 301 307 307 310 311 315 317 314 308 301 292 294 296 291 289 287 289 290 291 295 300
280 280 280 281 282 283 285 285 284 284 284 284 284 285 286 285 285 290 291 290 288 289 294 295 298 299 301 304 307 309 311 305 292 292 293 291 288 288 285 286 288 289 291

GFSMA_925_thetae_117.txt.gz
Theta_e
347 348 346 344 342 342 341 340 339 338 340 341 339 338 337 337 336 335 335 335 334 335 335 334 333 332 332 333 333 333 333 332 331 331 331 330 331 331 331 330 327 325 323
340 340 341 343 341 341 341 341 340 338 338 340 340 339 337 337 336 336 336 335 335 335 335 335 334 333 332 330 332 332 332 331 331 331 331 331 331 330 330 329 326 324 323
339 340 339 340 339 339 341 341 340 340 339 340 340 339 338 336 337 337 337 336 335 335 335 335 335 333 331 330 329 330 330 331 331 331 331 332 331 330 330 328 325 323 321
330 339 340 341 340 339 338 339 340 341 340 340 340 340 339 338 337 337 337 336 336 336 335 334 334 333 332 331 330 329 329 329 331 329 330 332 331 330 330 327 324 323 320
321 324 330 339 341 340 339 337 339 342 340 340 340 339 339 338 337 338 338 337 336 336 336 334 333 332 331 330 329 329 330 330 328 327 330 331 331 329 329 325 324 322 320
315 317 319 322 332 338 337 334 337 336 334 338 339 339 338 338 339 338 338 338 336 336 335 333 333 332 330 330 329 329 329 330 329 328 328 329 331 329 328 325 324 321 319
314 314 315 316 319 329 337 337 336 334 334 336 337 337 335 336 336 337 337 337 336 335 335 333 332 332 331 330 329 329 329 332 331 329 326 326 331 329 328 326 324 321 319
311 312 313 314 314 316 325 334 337 336 336 336 335 334 333 332 334 334 334 334 335 335 335 334 332 331 331 330 329 329 330 328 332 328 327 328 331 329 327 326 324 321 320
308 308 309 311 312 313 315 320 332 335 335 335 335 332 327 333 328 329 332 330 333 333 334 333 333 330 330 330 328 329 329 331 328 331 330 330 330 328 327 326 324 322 320
306 306 307 307 309 311 313 315 318 329 334 331 330 333 329 326 327 324 325 330 330 333 333 333 332 330 329 329 328 328 327 330 330 328 330 329 330 328 327 326 324 322 320
303 306 306 306 308 310 312 314 316 319 332 333 329 324 322 321 323 321 323 324 327 330 331 332 331 329 328 328 327 326 326 326 329 328 328 328 329 328 327 326 324 322 320
299 301 303 304 306 308 310 313 315 320 327 330 330 328 325 323 323 322 322 322 324 327 330 329 331 330 329 328 327 327 325 324 324 328 327 327 327 327 328 326 324 322 320
298 299 300 301 303 305 308 310 312 315 323 328 328 327 326 325 325 324 324 324 324 325 327 328 328 328 328 327 327 325 325 323 325 326 326 328 328 329 328 326 324 322 320
295 296 297 298 300 302 305 308 312 314 317 325 326 325 324 325 326 326 325 324 323 322 324 325 325 325 327 327 326 325 325 325 324 325 326 326 326 327 328 326 323 321 320
293 294 294 296 298 300 304 308 313 315 317 323 325 325 324 325 325 325 326 325 324 325 325 323 324 325 326 326 325 324 326 325 324 325 326 325 325 326 326 325 322 321 319
290 291 293 294 296 299 301 303 308 316 317 323 324 325 326 325 324 324 326 326 325 324 325 324 323 324 326 324 323 323 325 324 324 324 326 324 324 323 326 325 322 320 319
288 289 290 292 293 295 297 299 304 315 318 319 324 325 325 325 325 326 326 325 325 325 324 322 322 323 323 323 323 322 324 324 323 324 325 324 322 323 325 323 322 320 319
287 287 288 289 290 291 293 294 297 306 318 321 323 324 324 324 324 324 325 325 325 324 325 323 320 322 323 324 323 321 320 322 323 322 324 324 324 321 323 324 324 321 319
286 286 287 287 288 289 290 291 293 300 308 320 323 324 324 324 324 325 326 325 324 324 323 323 320 320 321 321 322 323 322 323 323 322 322 324 325 322 322 322 324 323 320
285 285 286 287 287 288 288 289 291 298 304 312 320 324 324 324 323 323 325 325 324 324 323 324 322 321 321 321 322 321 320 322 322 322 322 322 323 324 325 325 324 324 321
284 284 284 286 286 287 286 287 289 291 294 299 308 313 316 320 324 323 323 324 323 323 323 324 324 322 322 321 321 322 320 320 320 321 321 321 322 322 322 323 323 324 323
283 283 283 284 285 286 286 286 287 288 289 290 292 298 300 303 314 321 323 323 323 320 319 320 321 322 323 322 321 320 316 310 309 315 315 317 317 319 319 320 321 321 320
282 282 282 282 284 286 286 285 285 286 286 287 288 291 294 293 295 309 319 321 322 322 321 321 322 322 322 322 321 319 317 315 315 318 314 308 309 310 312 315 318 320 320
280 280 281 281 282 284 285 285 285 284 284 285 285 286 289 291 293 296 299 306 304 304 310 319 322 321 321 322 321 319 319 314 309 309 307 296 297 299 301 306 311 314 318
279 280 280 281 281 282 284 284 284 284 284 284 284 284 285 286 288 294 293 293 294 291 292 296 303 314 317 319 318 318 314 306 294 297 300 302 292 291 293 295 299 304 309
279 279 280 280 280 281 282 283 283 283 283 283 283 283 283 284 284 286 289 289 287 287 291 292 293 299 306 310 310 311 312 307 295 292 298 299 290 292 287 289 291 293 297

GFSMA_925_thetae_123.txt.gz
Theta_e
340 340 339 340 341 340 340 341 341 341 343 342 341 341 341 339 338 338 335 333 334 335 335 334 333 334 332 332 333 334 334 334 333 332 331 330 329 330 329 330 330 329 325
338 338 339 338 339 340 340 340 341 341 342 341 344 341 341 340 339 336 336 335 334 334 335 335 334 333 333 330 331 333 334 334 333 332 331 330 330 329 329 329 330 329 327
339 338 338 337 338 338 337 337 337 340 342 341 340 339 341 339 339 338 336 334 335 335 334 334 334 334 333 332 332 332 333 333 333 332 332 331 330 329 330 329 330 329 327
331 330 331 333 336 338 339 338 338 336 337 338 339 340 339 339 338 337 337 337 335 335 335 335 335 334 334 333 332 332 332 333 334 333 332 331 331 330 330 329 330 329 327
320 321 323 325 327 329 333 338 339 338 339 339 339 339 338 338 338 337 335 336 336 336 335 335 335 334 334 334 334 333 331 331 330 333 332 331 331 330 330 329 329 329 328
313 313 314 316 317 318 323 329 332 335 338 338 338 338 338 337 336 335 331 333 334 335 335 335 335 335 334 334 334 334 333 331 330 330 330 331 330 330 330 329 329 329 329
310 311 311 312 313 314 316 318 325 331 335 337 337 334 328 332 329 331 330 331 332 333 334 335 334 334 334 334 334 333 333 332 330 329 329 330 329 330 330 330 329 329 328
305 306 308 308 308 310 313 315 317 322 332 333 333 333 332 331 328 330 332 332 329 331 332 331 329 332 334 334 334 334 333 332 330 329 330 330 329 329 330 330 329 329 328
302 303 305 307 307 307 309 312 314 318 323 331 332 331 330 331 332 328 327 330 331 332 329 326 331 330 332 332 333 333 333 332 330 330 329 330 330 330 329 329 330 329 328
300 301 302 303 303 305 307 308 310 312 316 321 327 332 332 330 334 334 329 330 331 331 330 327 332 328 330 331 332 333 333 332 331 330 329 329 330 330 329 328 329 328 328
298 298 298 299 300 301 303 306 308 310 311 314 319 326 331 331 331 329 333 331 330 330 331 331 331 331 332 331 332 332 333 331 330 330 329 330 330 329 330 329 329 329 327
295 295 295 296 297 298 299 301 303 306 310 312 314 317 321 329 329 329 328 330 330 331 330 331 330 330 331 331 330 330 330 332 330 329 329 328 330 330 329 329 328 328 328
293 293 293 294 295 296 297 299 300 303 305 308 311 314 316 319 327 326 327 330 332 329 331 331 331 331 330 330 329 328 329 331 331 328 328 328 327 330 330 328 328 328 327
291 291 291 292 292 294 295 296 298 301 304 306 309 312 315 317 320 325 326 327 331 331 327 329 329 329 329 329 327 327 328 330 331 329 328 328 327 326 329 329 328 329 328
290 290 290 291 291 292 292 294 295 298 299 301 304 306 313 315 318 321 325 325 326 329 331 327 327 328 328 328 326 326 325 325 329 330 328 327 326 325 325 328 329 328 329
288 288 289 290 290 291 291 291 293 294 296 298 300 302 308 316 318 320 325 324 325 325 329 327 327 326 327 327 326 326 325 325 326 328 328 327 326 325 323 323 327 328 328
286 287 288 289 289 289 289 290 291 294 294 297 299 302 306 312 318 320 322 323 324 324 325 325 326 326 326 327 326 325 325 324 324 325 327 327 325 324 322 323 324 326 328
285 285 286 287 287 288 288 289 291 291 292 293 295 296 299 299 310 320 322 323 323 323 324 324 324 325 326 325 325 324 323 323 323 324 326 326 325 323 323 323 323 323 324
284 284 285 285 287 287 287 288 288 289 289 290 290 292 293 293 293 297 305 318 323 322 322 323 324 324 324 324 324 323 322 323 323 324 323 325 324 323 323 323 323 324 324
283 283 283 284 285 285 286 286 287 287 288 287 287 288 289 288 289 290 295 300 308 322 323 323 324 322 321 322 322 323 321 322 321 322 321 322 322 324 323 322 324 323 322
282 282 282 282 284 284 285 285 286 286 286 286 286 286 286 287 287 290 292 293 296 302 322 323 323 323 322 322 322 323 322 321 320 321 321 322 322 323 322 323 324 322 322
281 281 281 281 282 283 284 283 284 285 285 285 285 284 285 285 286 288 290 291 292 290 292 318 323 323 323 322 322 321 321 317 316 318 319 318 321 320 321 322 323 322 322
279 280 280 280 281 281 282 282 282 283 283 283 283 283 284 284 284 285 287 288 288 291 289 289 294 311 311 322 323 321 321 319 319 320 317 316 317 318 320 320 321 322 322
278 278 278 279 279 280 281 280 281 281 281 281 281 282 283 283 283 283 284 284 285 285 287 288 289 291 292 298 303 320 320 319 316 318 314 307 310 311 314 315 317 319 321
278 277 277 277 278 278 279 279 279 280 280 280 280 280 281 282 282 282 282 283 283 283 285 287 287 287 290 293 299 309 319 312 298 306 310 316 303 304 304 307 309 310 313
277 277 276 276 276 277 278 278 278 278 278 278 279 278 279 280 281 281 280 281 282 282 282 283 284 285 287 290 293 293 292 302 305 296 307 310 298 302 294 299 300 302 307

GFSMA_925_thetae_129.txt.gz
Theta_e
344 344 345 344 344 342 341 342 342 342 342 342 343 343 342 341 339 338 336 336 337 337 334 333 333 334 332 332 333 335 335 334 333 333 332 333 331 329 330 329 329 330 328
343 344 344 343 343 343 343 342 341 342 342 343 342 342 342 343 343 340 338 337 338 337 334 334 334 334 334 334 334 333 333 334 334 333 333 333 332 330 328 328 328 329 330
335 337 340 340 340 341 341 341 341 341 342 342 343 343 342 342 341 342 342 338 338 338 336 332 334 335 335 334 332 332 332 332 334 333 333 333 333 332 330 328 327 330 330
323 326 329 330 332 334 335 337 339 339 339 340 342 342 342 342 342 342 341 342 341 340 339 336 332 333 334 334 334 332 332 332 332 333 334 333 332 332 331 329 327 328 330
318 320 322 325 325 326 329 331 332 334 338 339 337 340 340 340 341 341 342 340 340 339 340 339 337 334 333 333 333 334 332 332 331 331 333 333 333 332 332 331 329 329 329
315 317 319 321 321 322 324 326 330 332 333 333 336 337 337 338 339 339 340 340 339 337 336 336 338 338 337 333 333 332 333 332 332 331 332 332 332 333 332 332 330 329 329
311 312 312 313 314 315 317 319 321 324 326 330 333 335 335 335 335 337 336 327 332 329 325 331 334 338 338 337 335 334 333 333 332 331 331 331 332 332 333 332 331 330 329
307 306 306 307 308 309 311 313 314 316 319 323 329 331 335 334 336 335 331 329 330 328 326 327 331 334 337 336 337 335 334 334 334 333 332 332 331 331 332 332 332 331 330
304 303 303 304 305 306 307 308 309 311 314 316 320 326 332 333 332 334 334 333 331 329 328 328 329 333 335 337 337 336 335 334 334 334 334 334 331 330 330 331 332 332 331
303 301 301 301 302 303 304 305 306 306 308 311 314 318 321 326 329 334 333 333 332 331 330 329 328 330 331 333 333 336 337 336 334 333 334 334 333 331 330 330 330 331 331
301 300 299 299 299 300 301 301 302 303 305 306 309 312 316 319 321 329 332 333 333 332 332 332 333 333 334 335 335 335 336 337 335 333 334 334 334 333 331 330 330 329 331
298 297 296 297 297 298 298 299 300 301 303 304 306 309 312 314 318 320 325 328 330 330 332 334 335 335 335 334 335 335 335 335 335 334 332 334 334 333 332 330 330 330 330
294 294 294 295 295 295 296 297 298 299 301 302 304 305 306 309 312 313 317 320 324 327 329 332 334 335 335 335 335 335 334 335 335 334 333 332 333 333 332 330 330 330 330
292 292 291 293 292 293 294 295 296 297 298 298 300 302 303 305 306 308 312 316 321 325 325 328 328 329 330 334 336 335 334 334 333 333 334 332 332 333 332 331 330 330 330
291 291 291 291 292 292 293 293 294 295 294 296 296 297 299 302 303 304 306 309 315 319 324 325 327 327 328 330 332 332 334 334 334 333 332 332 332 332 331 330 330 330 330
290 290 290 290 291 291 291 292 292 292 292 291 292 293 295 293 295 296 298 300 305 316 320 322 325 325 328 328 328 328 330 333 333 333 332 331 331 330 330 330 330 329 329
289 289 289 290 290 290 291 290 290 290 290 290 289 290 290 290 291 292 293 295 299 304 315 320 323 325 325 326 327 328 328 329 331 332 332 331 330 329 328 330 330 329 328
288 288 289 289 289 289 289 290 290 289 289 289 288 288 288 288 289 289 290 294 296 298 303 306 316 323 324 325 326 326 327 328 329 330 330 330 329 328 328 328 329 329 328
288 288 289 289 288 287 287 290 290 290 289 289 288 288 287 287 287 287 289 290 291 293 296 300 305 310 319 323 324 325 325 326 327 329 329 328 328 327 327 326 327 328 328
287 288 288 288 286 285 285 287 289 288 288 288 288 288 287 286 287 287 287 287 287 289 291 294 300 303 303 308 313 320 321 325 327 328 328 327 325 325 324 324 325 325 326
286 286 286 286 284 282 282 284 287 287 286 286 286 286 285 284 285 287 286 285 285 286 288 290 292 292 293 292 294 293 295 300 317 325 326 325 323 324 323 323 323 323 324
284 284 284 284 282 281 280 282 285 285 284 283 283 283 284 283 283 285 286 285 284 285 285 287 288 287 288 287 288 288 292 295 305 318 324 323 323 321 320 321 323 323 324
282 282 282 283 281 279 279 281 283 284 283 282 281 281 281 280 280 283 285 285 285 284 284 285 286 285 285 285 285 286 288 290 293 297 303 321 321 320 320 320 320 323 323
281 281 280 280 280 278 278 279 282 283 282 282 281 278 279 278 278 279 282 282 282 283 283 284 284 284 284 284 284 285 287 287 291 297 303 309 320 319 319 319 320 320 321
281 281 280 279 279 278 277 277 280 282 281 281 280 278 276 276 277 277 278 279 279 281 282 283 283 283 283 284 284 285 285 286 288 292 290 289 305 314 317 318 319 319 319
281 281 281 279 279 277 277 276 276 278 280 279 279 278 276 276 276 276 276 277 278 279 280 281 282 282 282 282 283 284 285 286 286 289 289 285 293 296 298 310 315 315 315

GFSMA_925_thetae_132.txt.gz
Theta_e
343 343 343 343 342 340 341 341 341 342 343 342 341 342 342 344 342 339 338 337 336 336 336 335 332 333 333 333 332 334 335 334 333 332 332 332 330 329 329 330 329 329 329
337 340 338 342 341 341 341 340 339 339 341 342 342 342 342 342 343 343 339 339 336 337 336 335 332 332 332 333 332 332 334 335 334 333 332 332 332 331 329 329 329 330 330
328 329 332 333 333 335 337 338 337 338 338 338 339 339 340 341 342 342 343 341 339 337 337 336 333 332 333 333 333 333 333 333 334 334 333 332 332 332 331 329 328 329 330
318 322 323 325 326 327 328 330 331 332 332 333 336 335 337 338 339 340 341 340 342 339 337 337 335 331 332 334 334 333 333 333 332 333 333 333 332 332 332 330 328 328 327
315 317 319 320 321 322 324 326 327 329 331 332 332 332 333 334 330 329 337 338 338 340 339 337 336 334 333 332 332 334 334 332 332 331 333 332 332 333 332 332 330 329 327
311 312 314 314 315 316 316 318 318 320 322 325 328 332 332 332 334 332 328 332 338 339 329 331 332 336 336 335 333 333 334 334 332 332 332 332 332 333 333 332 332 331 329
307 306 307 308 308 309 311 312 312 313 315 318 321 325 329 329 329 334 333 334 333 332 330 332 329 327 333 335 334 333 333 333 334 332 332 331 331 333 333 332 332 332 330
305 304 303 304 304 306 307 307 308 309 311 313 316 320 327 328 330 332 333 333 335 334 331 329 325 325 330 332 329 326 334 334 333 333 333 332 331 332 333 332 332 332 331
303 302 301 302 302 303 303 304 305 305 307 308 311 315 322 325 321 324 327 331 332 332 332 327 327 329 330 333 331 333 332 332 334 333 335 333 331 331 332 332 332 332 332
301 300 299 299 300 300 301 301 302 302 303 305 307 311 310 313 321 322 323 323 327 332 332 331 328 328 328 329 330 331 331 334 334 335 334 334 333 332 331 331 331 332 332
298 296 296 297 297 298 298 298 299 300 301 303 305 307 308 311 312 317 320 321 321 324 327 331 331 330 329 329 330 331 331 334 332 332 334 334 334 334 333 332 331 330 331
294 294 293 294 295 295 296 296 297 298 299 301 303 305 306 309 311 313 314 314 316 317 319 321 327 330 331 331 330 330 331 332 331 330 331 334 334 334 333 334 332 330 330
292 292 292 292 292 293 294 294 295 297 297 297 298 300 301 303 306 307 309 312 314 315 317 318 322 323 329 334 332 333 332 333 334 333 333 333 334 333 332 333 333 331 330
291 291 291 291 292 292 292 293 294 294 294 295 295 295 296 299 300 302 305 307 310 310 313 316 317 320 325 326 332 331 332 333 334 335 334 333 334 333 332 332 332 333 331
290 290 290 291 291 291 291 292 292 291 291 291 291 292 292 292 294 295 296 298 303 308 310 312 316 317 319 324 325 328 330 330 331 331 332 332 334 333 333 332 331 332 331
289 290 290 290 289 289 291 290 291 290 290 289 290 289 289 289 290 291 292 294 296 300 304 307 311 316 319 321 324 326 326 328 328 330 332 332 333 333 332 332 331 331 332
289 289 290 289 288 288 289 291 290 289 289 289 289 288 287 288 289 289 290 293 294 296 300 301 303 307 311 317 320 324 325 326 328 328 328 330 331 332 332 332 331 331 331
289 289 289 288 287 286 287 289 290 290 289 289 289 287 286 287 288 288 289 289 289 291 293 298 300 302 306 308 309 313 321 324 325 327 326 328 330 331 331 329 330 330 329
288 288 287 286 284 284 285 287 288 288 288 287 287 286 285 285 286 287 287 287 287 289 290 292 296 295 297 297 299 304 308 311 318 322 323 325 325 328 328 329 328 328 328
286 287 285 283 282 282 283 285 287 286 285 285 285 285 283 283 284 287 287 286 286 287 288 290 290 291 290 289 291 291 293 296 299 311 317 320 326 327 326 327 327 327 327
285 285 284 282 280 280 282 283 285 284 284 282 282 282 281 281 282 285 286 285 285 285 286 287 288 287 287 286 287 287 288 290 294 303 306 314 315 324 326 326 325 324 324
282 282 282 281 279 279 281 282 284 284 283 281 279 279 279 279 279 282 283 283 283 283 284 285 286 286 286 285 286 286 287 289 292 293 292 295 299 306 317 323 322 321 321
281 280 280 280 278 278 279 281 283 282 281 280 277 277 277 277 278 278 279 280 281 282 283 284 284 284 284 284 285 285 286 287 287 289 289 295 298 299 305 311 319 320 320
280 280 279 278 278 278 278 279 281 281 281 279 278 276 276 276 277 277 277 277 278 280 281 282 282 282 283 283 283 284 285 286 286 289 287 288 289 291 294 302 309 318 320
281 280 279 279 277 277 277 277 278 279 279 278 277 276 276 276 277 277 275 276 276 277 279 280 281 280 280 281 282 282 283 285 286 286 286 284 286 288 290 298 303 305 310
281 281 279 278 278 276 277 277 275 276 277 276 276 275 276 276 277 276 275 275 275 276 278 278 278 278 278 278 280 280 281 283 284 285 285 284 284 285 288 293 292 294 297

GFSMA_925_thetae_135.txt.gz
Theta_e
339 340 340 340 339 341 340 340 340 340 340 340 339 339 338 338 339 340 339 337 337 338 337 337 335 332 331 333 333 334 334 334 333 332 331 332 330 330 330 330 329 329 328
331 333 333 333 334 334 335 336 337 337 338 338 338 338 337 338 338 338 338 338 338 338 337 336 336 334 331 332 334 333 334 334 333 333 332 331 331 330 330 329 329 329 329
322 327 327 325 324 324 328 329 329 331 332 332 332 333 334 335 335 336 335 331 337 337 337 337 336 335 331 331 332 333 332 334 334 333 333 332 331 331 330 329 329 329 329
317 319 319 319 321 322 323 325 324 325 326 326 327 327 329 330 332 333 331 328 330 336 337 337 337 336 333 331 331 333 332 332 333 334 334 333 332 331 331 330 329 329 329
311 313 313 312 315 317 318 316 318 317 319 320 321 324 325 328 329 331 333 331 330 331 335 336 336 337 335 332 331 332 332 332 332 333 334 334 333 332 332 331 331 329 328
306 306 306 307 308 309 309 310 310 311 312 313 315 319 323 324 328 326 331 331 329 330 329 332 331 326 328 334 332 331 332 333 333 333 333 333 333 333 332 332 332 331 329
303 302 303 303 303 305 305 306 306 307 309 310 315 314 315 317 324 327 330 332 332 333 332 330 331 325 324 326 332 332 330 334 333 332 333 332 332 333 333 332 332 332 331
301 301 300 301 301 302 303 302 303 304 306 307 310 312 317 320 323 321 322 329 329 326 330 332 333 330 326 325 325 327 330 334 333 333 331 332 332 331 332 332 332 332 332
299 298 298 298 299 299 300 300 301 301 303 304 305 309 315 316 313 316 317 321 319 321 327 330 331 330 328 327 326 326 327 329 328 327 333 332 332 331 331 331 332 332 332
296 296 295 296 296 297 297 297 298 299 300 302 304 306 306 308 314 314 315 315 318 317 319 320 328 330 329 328 327 328 326 328 329 327 331 330 331 332 331 331 331 332 332
293 293 292 293 294 295 295 295 296 297 298 300 302 303 305 306 308 312 314 312 311 312 313 314 315 318 328 329 328 329 331 329 329 326 326 325 328 332 332 332 331 331 332
292 291 292 292 292 293 293 294 295 296 297 298 298 300 302 304 306 307 309 307 309 309 311 312 316 316 319 322 327 329 329 329 329 328 328 325 327 330 332 332 332 331 331
291 290 291 291 292 292 292 293 294 294 294 295 295 295 297 300 299 302 305 306 306 306 307 309 311 313 315 316 319 324 324 329 329 330 331 329 329 329 329 331 333 333 332
290 290 291 290 290 291 291 292 291 292 291 292 292 292 293 293 293 295 298 299 301 305 306 307 307 312 314 316 319 321 324 323 328 330 330 331 332 331 330 330 330 333 332
290 290 289 289 289 290 291 291 290 290 290 290 289 289 289 290 291 291 293 294 298 302 302 305 307 307 306 307 313 318 322 324 326 328 328 329 331 333 333 331 331 331 332
289 290 288 287 288 289 290 291 290 289 289 289 288 287 288 288 289 289 290 292 294 296 299 300 299 300 302 306 307 312 315 322 323 325 326 328 329 331 331 331 331 331 331
289 288 285 285 286 287 288 289 289 288 288 288 286 285 286 287 288 288 288 288 289 290 294 293 296 298 297 296 299 303 308 314 319 322 324 326 325 327 329 331 331 331 331
287 285 284 283 284 286 287 287 287 286 286 286 285 283 283 284 286 287 287 287 287 289 290 292 294 292 291 290 291 293 297 300 309 312 317 320 323 324 326 328 328 329 331
286 284 282 281 282 284 285 285 284 284 283 283 283 281 281 282 284 286 286 285 286 287 288 290 289 289 288 287 288 289 291 295 300 305 309 314 318 322 324 325 326 328 329
284 281 280 280 280 282 284 285 284 282 279 280 280 279 279 280 282 283 284 284 284 285 286 287 287 287 287 286 287 287 288 289 294 296 299 301 305 312 316 321 323 325 326
282 281 279 278 279 281 283 283 282 281 278 277 277 277 278 279 280 281 281 282 283 283 284 285 284 284 284 284 285 286 287 287 291 291 289 294 298 298 302 306 310 312 315
280 280 278 278 278 280 282 283 281 280 278 276 276 276 277 278 276 278 279 279 280 282 282 283 283 283 283 283 283 284 285 286 289 288 287 290 291 291 293 296 299 303 307
278 278 277 278 278 278 280 281 281 278 277 277 276 276 277 277 276 275 276 277 277 279 280 280 280 280 280 281 281 282 283 284 285 286 285 287 286 286 289 292 297 295 297
279 278 277 277 278 278 278 279 278 277 275 275 276 276 276 277 277 275 275 275 275 276 278 278 278 277 278 279 279 280 280 282 284 286 283 284 285 284 285 290 294 290 292
279 278 277 276 277 278 277 276 276 276 275 275 276 277 276 277 277 275 274 273 273 274 275 276 275 276 275 277 278 278 278 280 281 284 283 283 284 283 284 287 288 288 290
279 277 276 275 275 277 277 277 275 276 275 275 275 276 276 276 276 276 273 273 272 273 273 273 272 273 273 274 275 276 276 278 279 281 281 281 283 282 283 284 284 285 286